Home   Weather   Santorini   Past weeks
Flag for Greece

Past Weather in Santorini, Greece — Yesterday and Last 2 Weeks

Now
82 °F

Sunny.


Feels Like: 82 °F
Forecast: 79 / 75 °F
Wind: 17 mph from North

Location: Santorini Island

Current Time: Jul 19, 2019 at 11:50:06 am

Latest Report: Jul 19, 2019 at 10:50 am


Visibility: 10 mi

Pressure: 29.89 "Hg

Humidity: 42%

Dew Point: 57 °F

Location of SantoriniLocation

Past Weather in Santorini — Graph

°F

Santorini Temperature Yesterday

Maximum temperature yesterday: 82 °F (at 1:50 pm)
Minimum temperature yesterday: 73 °F (at 4:50 am)
Average temperature yesterday: 78 °F

High & Low Weather Summary for the Past Weeks

 TemperatureHumidityPressure
High95 °F (Jul 10, 11:20 am)83% (Jul 8, 4:50 am)29.89 "Hg (Jul 8, 4:50 am)
Low70 °F (Jul 16, 12:50 am)26% (Jul 10, 11:50 am)29.59 "Hg (Jul 11, 7:20 am)
Average80 °F59%29.78 "Hg
* Reported Jul 4 10:20 am — Jul 19 10:20 am, Santorini. Weather by CustomWeather, © 2019

Note: Actual official high and low records may vary slightly from our data, if they occured in-between our weather recording intervals... More about our weather records

Advertising

Santorini Weather History for the Previous 24 Hours

Scroll right to see more
 ConditionsComfort  
Time TempWeatherWind HumidityBarometerVisibility
10:20 am
Fri, Jul 19
82 °FSunny.18 mph42%29.89 "Hg10 mi
9:50 am81 °FSunny.15 mph51%29.89 "Hg10 mi
9:20 am81 °FSunny.15 mph48%29.86 "Hg10 mi
8:50 am81 °FSunny.12 mph45%29.89 "Hg10 mi
8:20 am79 °FPassing clouds.12 mph51%29.89 "HgN/A
7:50 am77 °FPassing clouds.14 mph61%29.89 "HgN/A
7:20 am77 °FPassing clouds.10 mph61%29.86 "HgN/A
6:50 am75 °FSunny.10 mph65%29.86 "Hg10 mi
6:20 am73 °FSunny.12 mph69%29.86 "Hg10 mi
5:50 am73 °FClear.10 mph69%29.86 "Hg10 mi
5:20 am73 °FClear.9 mph69%29.86 "Hg10 mi
4:50 am73 °FClear.10 mph69%29.86 "Hg10 mi
4:20 am73 °FClear.10 mph69%29.86 "Hg10 mi
3:50 am73 °FClear.12 mph65%29.86 "Hg10 mi
3:20 am75 °FClear.10 mph61%29.86 "Hg10 mi
2:50 am75 °FClear.9 mph61%29.86 "Hg10 mi
2:20 am73 °FClear.9 mph65%29.86 "Hg10 mi
1:50 am75 °FClear.10 mph57%29.86 "Hg10 mi
1:20 am73 °FClear.9 mph69%29.86 "Hg10 mi
12:50 am75 °FClear.9 mph57%29.86 "Hg10 mi
12:20 am75 °FClear.9 mph54%29.86 "Hg10 mi
11:50 pm
Thu, Jul 18
75 °FClear.12 mph57%29.86 "Hg10 mi
11:20 pm75 °FClear.13 mph61%29.86 "Hg10 mi
10:50 pm75 °FClear.10 mph65%29.86 "Hg10 mi
10:20 pm75 °FClear.12 mph65%29.86 "Hg10 mi
9:50 pm77 °FClear.15 mph61%29.86 "Hg10 mi
9:20 pm77 °FClear.15 mph61%29.86 "Hg10 mi
8:50 pm77 °FClear.14 mph61%29.86 "Hg10 mi
8:20 pm77 °FSunny.15 mph61%29.83 "Hg10 mi
7:50 pm79 °FSunny.15 mph54%29.83 "Hg10 mi
7:20 pm81 °FSunny.17 mph48%29.83 "Hg10 mi
6:50 pm81 °FSunny.21 mph45%29.83 "Hg10 mi
6:20 pm81 °FSunny.18 mph45%29.83 "Hg10 mi
5:50 pm82 °FSunny.18 mph40%29.83 "Hg10 mi
5:20 pm82 °FSunny.18 mph42%29.83 "Hg10 mi
4:50 pm82 °FSunny.17 mph48%29.80 "Hg10 mi
4:20 pm81 °FSunny.17 mph51%29.80 "Hg10 mi
3:50 pm82 °FSunny.15 mph40%29.80 "Hg10 mi
3:20 pm82 °FSunny.15 mph40%29.83 "Hg10 mi
2:50 pm82 °FSunny.16 mph42%29.83 "Hg10 mi
2:20 pm82 °FSunny.18 mph40%29.80 "Hg10 mi
1:50 pm82 °FSunny.17 mph45%29.80 "Hg10 mi
1:20 pm81 °FSunny.18 mph45%29.80 "Hg10 mi
12:50 pm81 °FSunny.16 mph45%29.83 "Hg10 mi
12:20 pm81 °FSunny.17 mph48%29.80 "Hg10 mi
11:20 am81 °FPassing clouds.17 mph54%29.80 "HgN/A
Weather by CustomWeather, © 2019

See weather overview